Location: Observatorio Ernesto Juarez Davis
(29.2175°N, 110.7606°W)
Time: 21:41:41
(UTC-07:00)

LightSail 2 - Visible Passes

Search period start: 15 September 2019 00:00
Search period end: 25 September 2019 00:00
Orbit: 699 x 733 km, 24.0° (Epoch: 15 September)

Date Brightness Start Highest point End Pass type
(mag) Time Alt. Az. Time Alt. Az. Time Alt. Az.
16 Sep 7.5 05:30:54 10° S 05:33:32 14° SSE 05:36:10 10° SE visible
17 Sep 7.7 04:36:09 10° SSE 04:36:29 10° SSE 04:36:49 10° SSE visible
18 Sep 7.0 05:20:35 10° SSW 05:24:25 22° SSE 05:28:17 10° ESE visible
19 Sep 7.1 04:26:03 15° S 04:27:21 17° SSE 04:30:34 10° ESE visible
20 Sep 6.4 05:11:30 13° SW 05:15:19 30° SSE 05:19:45 10° ESE visible
21 Sep 6.6 04:17:54 25° SSE 04:18:11 25° SSE 04:22:19 10° ESE visible
22 Sep 7.8 03:24:15 12° ESE 03:24:15 12° ESE 03:24:44 10° ESE visible
22 Sep 6.0 05:03:16 20° SW 05:06:13 39° S 05:10:56 10° ESE visible
23 Sep 6.2 04:09:36 33° SSE 04:09:36 33° SSE 04:13:36 10° ESE visible
24 Sep 7.9 03:15:54 11° ESE 03:15:54 11° ESE 03:16:13 10° ESE visible
24 Sep 5.7 04:54:55 28° SW 04:57:06 45° S 05:01:56 10° ESE visible
